Regional Weather Roundup
Issued by NWS

Home | Current Version | Previous Version | Graphics & Text | Print | Product List | Glossary On
Versions: 1 2 3 4 5 6 7 8 9 10 11 12 13 14 15 16 17 18 19 20 21 22 23 24 25 26 27 28 29 30 31 32 33 34 35 36 37 38 39 40 41 42 43 44 45 46 47 48 49 50
000
ASUS43 KBIS 302020
RWRND

NORTH DAKOTA REGIONAL WEATHER ROUNDUP
NATIONAL WEATHER SERVICE BISMARCK ND
300 PM CDT THU OCT 30 2014

NOTE: "FAIR" INDICATES FEW OR NO CLOUDS BELOW 12,000 FEET WITH NO
SIGNIFICANT WEATHER AND/OR OBSTRUCTIONS TO VISIBILITY.


NDZ001>003-009>011-017-302100-
NORTHWEST NORTH DAKOTA

CITY           SKY/WX    TMP DP  RH WIND       PRES   REMARKS
WILLISTON      CLOUDY    38  31  76 N7        30.44S
MINOT          CLOUDY    34  24  67 N9        30.45R
MINOT AFB      CLOUDY    33  25  73 N13       30.46R
$$

NDZ018>021-031>035-040>046-302100-
SOUTHWEST NORTH DAKOTA

CITY           SKY/WX    TMP DP  RH WIND       PRES   REMARKS
BISMARCK       CLOUDY    36  31  82 N15       30.43R
DICKINSON      CLOUDY    37  31  78 NE7       30.39S
GARRISON         N/A     34  27  75 NE10      30.43R
HETTINGER ARPT CLOUDY    38  30  73 N12       30.41R
$$

NDZ004>008-012>016-024-026-027-054-302100-
NORTHEAST NORTH DAKOTA

CITY           SKY/WX    TMP DP  RH WIND       PRES   REMARKS
GRAND FORKS    CLOUDY    37  22  54 N28G36    30.36R
GRND FRKS AFB  CLOUDY    38  22  52 N21G31    30.36S
DEVILS LAKE    MOSUNNY   36  16  44 N17G26    30.39S
$$

NDZ022-023-025-028>030-036>039-047>053-302100-
SOUTHEAST NORTH DAKOTA

CITY           SKY/WX    TMP DP  RH WIND       PRES   REMARKS
FARGO          CLOUDY    38  29  70 N23G32    30.32R
JAMESTOWN      CLOUDY    35  26  69 N20G28    30.37R
$$




USA.gov is the U.S. government's official web portal to all federal, state and local government web resources and services.